| time (UTC) | temp F | wind direction | speed knots | gust knots | rain 1hr in | rain 24hr in | rain mn in | humidity % | barometer mb |
| 20260906222017 | 68 | 267 | 2.6 | 2.6 | 0.03 | 0.20 | 0.03 | 65 | 1101.7 |
| 20260906221017 | 68 | 264 | 2.6 | 2.6 | 0.02 | 0.20 | 0.02 | 64 | 1101.0 |
| 20260906220017 | 68 | 260 | 2.6 | 2.6 | 0.00 | 0.20 | 0.00 | 63 | 1100.3 |
| 20260906215017 | 69 | 257 | 2.6 | 2.6 | 0.00 | 0.20 | 0.20 | 63 | 1099.6 |
| 20260906214017 | 69 | 253 | 2.6 | 3.5 | 0.00 | 0.20 | 0.20 | 62 | 1098.9 |
| 20260906213017 | 52 | 0.0 | 0.0 | 0.00 | 0.00 | 0.00 | 81 | 1025.4 | |
| 20260906212017 | 69 | 246 | 2.6 | 3.5 | 0.00 | 0.20 | 0.20 | 61 | 1097.5 |
| 20260906211017 | 52 | 0.0 | 0.0 | 0.00 | 0.00 | 0.00 | 80 | 1025.4 | |
| 20260906210017 | 70 | 239 | 2.6 | 3.5 | 0.00 | 0.20 | 0.20 | 60 | 1096.0 |
| 20260906205017 | 70 | 235 | 2.6 | 3.5 | 0.00 | 0.20 | 0.20 | 59 | 1095.3 |
| 20260906204037 | 53 | 0.0 | 0.0 | 0.00 | 0.00 | 0.00 | 79 | 1025.5 | |
| 20260906203019 | 53 | 0.0 | 0.0 | 0.00 | 0.00 | 0.00 | 78 | 1025.6 | |
| 20260906203016 | 70 | 227 | 3.5 | 3.5 | 0.00 | 0.20 | 0.20 | 58 | 1093.8 |
| 20260906202017 | 53 | 0.0 | 0.0 | 0.00 | 0.00 | 0.00 | 78 | 1025.5 | |
| 20260906201017 | 70 | 220 | 3.5 | 4.3 | 0.00 | 0.20 | 0.20 | 57 | 1092.3 |
| 20260906200017 | 70 | 216 | 3.5 | 4.3 | 0.00 | 0.20 | 0.20 | 56 | 1091.5 |
| 20260906195017 | 70 | 212 | 3.5 | 4.3 | 0.00 | 0.20 | 0.20 | 55 | 1090.8 |
| 20260906194018 | 70 | 208 | 3.5 | 4.3 | 0.00 | 0.20 | 0.20 | 55 | 1090.0 |
| 20260906193017 | 69 | 204 | 3.5 | 4.3 | 0.00 | 0.20 | 0.20 | 54 | 1089.2 |
| 20260906192017 | 69 | 201 | 3.5 | 4.3 | 0.00 | 0.20 | 0.20 | 53 | 1088.4 |
| 20260906191017 | 57 | 0.0 | 0.0 | 0.00 | 0.00 | 0.00 | 71 | 1025.5 | |
| 20260906190017 | 58 | 0.0 | 0.0 | 0.00 | 0.00 | 0.00 | 69 | 1025.5 | |
| 20260906185017 | 68 | 189 | 4.3 | 5.2 | 0.00 | 0.20 | 0.20 | 51 | 1086.1 |
| 20260906184017 | 59 | 0.0 | 0.0 | 0.00 | 0.00 | 0.00 | 67 | 1025.4 | |
| 20260906183057 | 67 | 181 | 4.3 | 5.2 | 0.00 | 0.20 | 0.20 | 50 | 1084.6 |
| 20260906183037 | 59 | 0.0 | 0.0 | 0.00 | 0.00 | 0.00 | 67 | 1025.2 | |
| 20260906182017 | 67 | 177 | 4.3 | 5.2 | 0.00 | 0.20 | 0.20 | 49 | 1083.8 |
| 20260906181018 | 61 | 0.0 | 0.0 | 0.00 | 0.00 | 0.00 | 65 | 1025.1 | |
| 20260906180017 | 66 | 169 | 4.3 | 5.2 | 0.00 | 0.20 | 0.20 | 48 | 1082.2 |
| 20260906175017 | 65 | 165 | 4.3 | 6.1 | 0.00 | 0.20 | 0.20 | 48 | 1081.5 |
| 20260906174017 | 63 | 0.0 | 0.0 | 0.00 | 0.00 | 0.00 | 58 | 1025.3 | |
| 20260906173017 | 64 | 157 | 5.2 | 6.1 | 0.00 | 0.20 | 0.20 | 46 | 1079.9 |
| 20260906172017 | 64 | 154 | 5.2 | 6.1 | 0.00 | 0.20 | 0.20 | 46 | 1079.2 |
| 20260906171017 | 63 | 150 | 5.2 | 6.1 | 0.00 | 0.20 | 0.20 | 45 | 1078.4 |
| 20260906170057 | 62 | 146 | 5.2 | 6.1 | 0.00 | 0.20 | 0.20 | 44 | 1077.6 |
| 20260906165017 | 62 | 142 | 5.2 | 6.1 | 0.00 | 0.20 | 0.20 | 44 | 1076.9 |
| 20260906164017 | 61 | 138 | 5.2 | 6.1 | 0.00 | 0.20 | 0.20 | 43 | 1076.1 |
| 20260906163017 | 60 | 134 | 5.2 | 7.0 | 0.00 | 0.20 | 0.20 | 42 | 1075.4 |
| 20260906162017 | 59 | 131 | 5.2 | 7.0 | 0.00 | 0.20 | 0.20 | 42 | 1074.6 |
| 20260906161037 | 59 | 127 | 5.2 | 7.0 | 0.00 | 0.20 | 0.20 | 41 | 1073.9 |
| 20260906160017 | 58 | 123 | 6.1 | 7.0 | 0.00 | 0.20 | 0.20 | 41 | 1073.1 |
| 20260906155017 | 57 | 119 | 6.1 | 7.0 | 0.00 | 0.20 | 0.20 | 40 | 1072.4 |
| 20260906154017 | 56 | 116 | 6.1 | 7.0 | 0.00 | 0.20 | 0.20 | 39 | 1071.7 |
| 20260906153017 | 55 | 112 | 6.1 | 7.0 | 0.00 | 0.20 | 0.20 | 39 | 1070.9 |
| 20260906152017 | 72 | 0.0 | 1.7 | 0.00 | 0.00 | 0.00 | 36 | 1026.1 | |
| 20260906151017 | 54 | 105 | 6.1 | 7.8 | 0.00 | 0.20 | 0.20 | 37 | 1069.5 |
| 20260906150017 | 53 | 101 | 6.1 | 7.8 | 0.00 | 0.20 | 0.20 | 37 | 1068.8 |
| 20260906145017 | 52 | 98 | 6.1 | 7.8 | 0.00 | 0.20 | 0.20 | 36 | 1068.1 |
| 20260906144017 | 51 | 94 | 6.1 | 7.8 | 0.00 | 0.20 | 0.20 | 36 | 1067.4 |
| 20260906143017 | 50 | 91 | 6.1 | 7.8 | 0.00 | 0.20 | 0.20 | 35 | 1066.7 |
| 20260906142017 | 49 | 87 | 7.0 | 7.8 | 0.00 | 0.20 | 0.20 | 35 | 1066.1 |
| 20260906141017 | 48 | 84 | 7.0 | 7.8 | 0.00 | 0.20 | 0.20 | 34 | 1065.4 |
| 20260906140017 | 48 | 81 | 7.0 | 7.8 | 0.00 | 0.20 | 0.20 | 33 | 1064.8 |
| 20260906135017 | 47 | 78 | 7.0 | 7.8 | 0.00 | 0.20 | 0.20 | 33 | 1064.1 |
| 20260906134017 | 46 | 74 | 7.0 | 8.7 | 0.00 | 0.20 | 0.20 | 32 | 1063.5 |
| 20260906133037 | 45 | 71 | 7.0 | 8.7 | 0.00 | 0.20 | 0.20 | 32 | 1062.9 |
| 20260906132037 | 44 | 68 | 7.0 | 8.7 | 0.00 | 0.20 | 0.20 | 31 | 1062.2 |
| 20260906131017 | 70 | 180 | 0.9 | 3.5 | 0.00 | 0.00 | 0.00 | 44 | 1026.9 |
| 20260906130017 | 43 | 62 | 7.0 | 8.7 | 0.00 | 0.20 | 0.20 | 30 | 1061.0 |
| 20260906125017 | 42 | 59 | 7.0 | 8.7 | 0.00 | 0.20 | 0.20 | 30 | 1060.5 |
| 20260906124017 | 41 | 56 | 7.0 | 8.7 | 0.00 | 0.20 | 0.20 | 29 | 1059.9 |
| 20260906123516 | 70 | 180 | 0.9 | 3.5 | 0.00 | 0.00 | 0.00 | 43 | 1027.2 |
| 20260906123037 | 40 | 53 | 7.8 | 8.7 | 0.00 | 0.20 | 0.20 | 29 | 1059.3 |
| 20260906122521 | 69 | 0.0 | 2.6 | 0.00 | 0.00 | 0.00 | 41 | 1027.2 | |
| 20260906122037 | 39 | 51 | 7.8 | 8.7 | 0.00 | 0.20 | 0.20 | 28 | 1058.8 |
| 20260906121516 | 68 | 0.0 | 2.6 | 0.00 | 0.00 | 0.00 | 45 | 1027.3 | |
| 20260906121017 | 39 | 48 | 7.8 | 8.7 | 0.00 | 0.20 | 0.20 | 28 | 1058.3 |
| 20260906120516 | 69 | 270 | 1.7 | 6.1 | 0.00 | 0.00 | 0.00 | 45 | 1027.5 |
| 20260906120037 | 38 | 45 | 7.8 | 9.6 | 0.00 | 0.20 | 0.20 | 28 | 1057.7 |
| 20260906115516 | 69 | 293 | 1.7 | 5.2 | 0.00 | 0.00 | 0.00 | 45 | 1027.5 |
| 20260906115037 | 37 | 43 | 7.8 | 9.6 | 0.00 | 0.20 | 0.20 | 27 | 1057.2 |
| 20260906114516 | 69 | 0.0 | 0.9 | 0.00 | 0.00 | 0.00 | 47 | 1027.6 | |
| 20260906114017 | 37 | 40 | 7.8 | 9.6 | 0.00 | 0.20 | 0.20 | 27 | 1056.7 |
| 20260906113017 | 36 | 38 | 7.8 | 9.6 | 0.00 | 0.20 | 0.20 | 26 | 1056.3 |
| 20260906113015 | 67 | 293 | 0.9 | 3.5 | 0.00 | 0.00 | 0.00 | 47 | 1027.4 |
| 20260906112017 | 35 | 35 | 7.8 | 9.6 | 0.00 | 0.20 | 0.20 | 26 | 1055.8 |
| 20260906112015 | 67 | 293 | 0.9 | 2.6 | 0.00 | 0.00 | 0.00 | 47 | 1027.5 |
| 20260906111017 | 67 | 0.0 | 1.7 | 0.00 | 0.00 | 0.00 | 48 | 1027.6 | |
| 20260906110018 | 64 | 90 | 0.9 | 2.6 | 0.00 | 0.00 | 0.00 | 51 | 1027.3 |
| 20260906105018 | 65 | 0.0 | 1.7 | 0.00 | 0.00 | 0.00 | 53 | 1027.6 | |
| 20260906104037 | 33 | 27 | 7.8 | 9.6 | 0.00 | 0.20 | 0.20 | 24 | 1054.0 |
| 20260906104018 | 64 | 0.0 | 1.7 | 0.00 | 0.00 | 0.00 | 53 | 1027.8 | |
| 20260906103017 | 33 | 25 | 7.8 | 9.6 | 0.00 | 0.20 | 0.20 | 24 | 1053.6 |
| 20260906102017 | 64 | 270 | 0.9 | 3.5 | 0.00 | 0.00 | 0.00 | 58 | 1028.0 |
| 20260906101018 | 64 | 0.0 | 3.5 | 0.00 | 0.00 | 0.00 | 60 | 1028.0 | |
| 20260906100018 | 63 | 0.0 | 1.7 | 0.00 | 0.00 | 0.00 | 61 | 1028.0 | |
| 20260906095018 | 64 | 0.0 | 1.7 | 0.00 | 0.00 | 0.00 | 60 | 1028.2 | |
| 20260906094058 | 64 | 248 | 0.9 | 2.6 | 0.00 | 0.00 | 0.00 | 62 | 1028.4 |
| 20260906093037 | 31 | 14 | 8.7 | 10.4 | 0.00 | 0.20 | 0.20 | 22 | 1051.6 |
| 20260906093018 | 64 | 248 | 1.7 | 3.5 | 0.00 | 0.00 | 0.00 | 61 | 1028.4 |
| 20260906092017 | 31 | 13 | 8.7 | 10.4 | 0.00 | 0.20 | 0.20 | 22 | 1051.3 |
| 20260906091037 | 62 | 0.0 | 0.9 | 0.00 | 0.00 | 0.00 | 68 | 1028.2 | |
| 20260906090017 | 62 | 293 | 0.9 | 3.5 | 0.00 | 0.00 | 0.00 | 68 | 1028.3 |
| 20260906085037 | 30 | 9 | 8.7 | 10.4 | 0.00 | 0.20 | 0.20 | 21 | 1050.5 |
| 20260906084017 | 62 | 293 | 0.9 | 2.6 | 0.00 | 0.00 | 0.00 | 70 | 1028.3 |
| 20260906083017 | 30 | 6 | 8.7 | 10.4 | 0.00 | 0.20 | 0.20 | 21 | 1050.0 |
| 20260906082017 | 61 | 113 | 0.9 | 5.2 | 0.00 | 0.00 | 0.00 | 71 | 1028.2 |
| 20260906081037 | 30 | 4 | 8.7 | 10.4 | 0.00 | 0.20 | 0.20 | 21 | 1049.7 |
| 20260906080017 | 30 | 4 | 8.7 | 10.4 | 0.00 | 0.20 | 0.20 | 21 | 1049.5 |
| 20260906075017 | 58 | 0.0 | 1.7 | 0.00 | 0.00 | 0.00 | 83 | 1027.9 | |
| 20260906074057 | 57 | 270 | 1.7 | 3.5 | 0.00 | 0.00 | 0.00 | 85 | 1028.1 |
| 20260906073017 | 31 | 2 | 8.7 | 10.4 | 0.00 | 0.20 | 0.20 | 20 | 1049.1 |
| 20260906072017 | 55 | 0.0 | 0.0 | 0.00 | 0.00 | 0.00 | 91 | 1027.7 | |
| 20260906071017 | 54 | 0.0 | 0.0 | 0.00 | 0.00 | 0.00 | 92 | 1027.6 | |
| 20260906070017 | 52 | 0.0 | 0.0 | 0.00 | 0.00 | 0.00 | 93 | 1027.6 | |
| 20260906065017 | 51 | 0.0 | 0.0 | 0.00 | 0.00 | 0.00 | 93 | 1027.4 | |
| 20260906064017 | 49 | 0.0 | 0.0 | 0.00 | 0.00 | 0.00 | 93 | 1027.3 | |
| 20260906063017 | 48 | 0.0 | 0.0 | 0.00 | 0.00 | 0.00 | 92 | 1027.1 | |
| 20260906062017 | 33 | 0 | 8.7 | 10.4 | 0.00 | 0.20 | 0.20 | 20 | 1048.8 |
| 20260906061017 | 45 | 0.0 | 0.0 | 0.00 | 0.00 | 0.00 | 92 | 1026.8 | |
| 20260906060017 | 34 | 0 | 8.7 | 10.4 | 0.00 | 0.20 | 0.20 | 20 | 1048.8 |
| 20260906055017 | 43 | 0.0 | 0.0 | 0.00 | 0.00 | 0.00 | 92 | 1026.9 | |
| 20260906054017 | 43 | 0.0 | 0.0 | 0.00 | 0.00 | 0.00 | 91 | 1026.7 | |
| 20260906053057 | 36 | 1 | 8.7 | 10.4 | 0.00 | 0.20 | 0.20 | 20 | 1049.1 |
| 20260906052019 | 43 | 0.0 | 0.0 | 0.00 | 0.00 | 0.00 | 91 | 1026.6 | |
| 20260906052017 | 36 | 2 | 8.7 | 10.4 | 0.00 | 0.20 | 0.20 | 20 | 1049.2 |
| 20260906051017 | 43 | 0.0 | 0.9 | 0.00 | 0.00 | 0.00 | 91 | 1026.5 | |
| 20260906050037 | 43 | 0.0 | 0.0 | 0.00 | 0.00 | 0.00 | 91 | 1026.6 | |
| 20260906045017 | 43 | 0.0 | 0.0 | 0.00 | 0.00 | 0.00 | 91 | 1026.3 | |
| 20260906044017 | 43 | 0.0 | 0.0 | 0.00 | 0.00 | 0.00 | 91 | 1026.4 | |
| 20260906043017 | 43 | 0.0 | 0.0 | 0.00 | 0.00 | 0.00 | 91 | 1026.6 | |
| 20260906042017 | 43 | 0.0 | 0.0 | 0.00 | 0.00 | 0.00 | 91 | 1026.4 | |
| 20260906041017 | 41 | 8 | 8.7 | 10.4 | 0.00 | 0.20 | 0.20 | 21 | 1050.4 |
| 20260906040037 | 44 | 0.0 | 0.0 | 0.00 | 0.00 | 0.00 | 91 | 1026.4 | |
| 20260906035017 | 44 | 0.0 | 0.0 | 0.00 | 0.00 | 0.00 | 90 | 1026.4 | |
| 20260906034017 | 44 | 12 | 8.7 | 10.4 | 0.00 | 0.20 | 0.20 | 22 | 1051.1 |
| 20260906033017 | 45 | 0.0 | 0.0 | 0.00 | 0.00 | 0.00 | 90 | 1026.5 | |
| 20260906032017 | 45 | 15 | 8.7 | 10.4 | 0.00 | 0.20 | 0.20 | 22 | 1051.7 |
| 20260906031037 | 45 | 0.0 | 0.9 | 0.00 | 0.00 | 0.00 | 90 | 1026.4 | |
| 20260906030017 | 45 | 0.0 | 0.0 | 0.00 | 0.00 | 0.00 | 90 | 1026.2 | |
| 20260906025016 | 48 | 20 | 7.8 | 9.6 | 0.00 | 0.20 | 0.20 | 23 | 1052.7 |
| 20260906024017 | 49 | 22 | 7.8 | 9.6 | 0.00 | 0.20 | 0.20 | 24 | 1053.1 |
| 20260906023036 | 45 | 0.0 | 0.0 | 0.00 | 0.03 | 0.00 | 89 | 1026.4 | |
| 20260906022016 | 46 | 0.0 | 0.0 | 0.00 | 0.06 | 0.00 | 90 | 1026.2 | |
| 20260906021017 | 46 | 0.0 | 0.0 | 0.00 | 0.07 | 0.00 | 89 | 1026.0 | |
| 20260906020016 | 46 | 0.0 | 0.0 | 0.00 | 0.09 | 0.00 | 89 | 1026.1 | |
| 20260906015037 | 46 | 0.0 | 0.0 | 0.00 | 0.09 | 0.00 | 89 | 1026.0 | |
| 20260906014037 | 54 | 34 | 7.8 | 9.6 | 0.02 | 0.20 | 0.20 | 26 | 1055.6 |
| 20260906013037 | 46 | 0.0 | 0.0 | 0.00 | 0.09 | 0.00 | 88 | 1025.8 | |
| 20260906012037 | 56 | 39 | 7.8 | 9.6 | 0.04 | 0.20 | 0.20 | 27 | 1056.5 |
| 20260906012016 | 46 | 0.0 | 0.0 | 0.00 | 0.09 | 0.00 | 88 | 1025.7 | |
| 20260906011016 | 57 | 42 | 7.8 | 9.6 | 0.05 | 0.20 | 0.20 | 27 | 1057.0 |
| 20260906010018 | 47 | 0.0 | 0.0 | 0.00 | 0.09 | 0.00 | 87 | 1025.6 | |
| 20260906005017 | 58 | 47 | 7.8 | 8.7 | 0.06 | 0.20 | 0.19 | 28 | 1058.0 |
| 20260906004017 | 59 | 49 | 7.8 | 8.7 | 0.06 | 0.20 | 0.18 | 28 | 1058.5 |
| 20260906003016 | 48 | 0.0 | 0.0 | 0.00 | 0.09 | 0.00 | 87 | 1025.5 | |
| 20260906002017 | 61 | 55 | 7.0 | 8.7 | 0.07 | 0.20 | 0.16 | 29 | 1059.6 |
| 20260906001017 | 61 | 58 | 7.0 | 8.7 | 0.07 | 0.20 | 0.15 | 30 | 1060.2 |
| 20260906000037 | 62 | 61 | 7.0 | 8.7 | 0.07 | 0.20 | 0.14 | 30 | 1060.8 |
| 20260905235016 | 49 | 0.0 | 0.0 | 0.00 | 0.09 | 0.00 | 86 | 1025.2 | |
| 20260905234018 | 63 | 67 | 7.0 | 8.7 | 0.07 | 0.20 | 0.12 | 31 | 1062.0 |
| 20260905234016 | 49 | 0.0 | 0.0 | 0.00 | 0.09 | 0.00 | 85 | 1025.1 | |
| 20260905233017 | 64 | 70 | 7.0 | 8.7 | 0.06 | 0.20 | 0.10 | 32 | 1062.6 |
| 20260905232017 | 65 | 73 | 7.0 | 8.7 | 0.06 | 0.20 | 0.09 | 32 | 1063.2 |
| 20260905231017 | 65 | 76 | 7.0 | 7.8 | 0.06 | 0.20 | 0.08 | 33 | 1063.8 |
| 20260905230017 | 66 | 79 | 7.0 | 7.8 | 0.07 | 0.20 | 0.07 | 33 | 1064.5 |
| 20260905225017 | 66 | 83 | 7.0 | 7.8 | 0.06 | 0.20 | 0.06 | 34 | 1065.1 |
| 20260905224037 | 67 | 86 | 7.0 | 7.8 | 0.05 | 0.20 | 0.05 | 34 | 1065.8 |
| 20260905223017 | 67 | 89 | 7.0 | 7.8 | 0.04 | 0.20 | 0.04 | 35 | 1066.4 |